Weather History for KSGS - June, 2013

Change the Weather History Date:

Monday, June 10, 2013

  Actual Average (KMSP) Record (KMSP)
Temperature  
Mean Temperature 68 °F 67 °F  
Max Temperature 77 °F 77 °F 99 °F (1956)
Min Temperature 60 °F 57 °F 40 °F (1877)
Degree Days  
Heating Degree Days 0 2  
Month to date heating degree days 27  
Since 1 June heating degree days 27  
Since 1 July heating degree days 7563  
Cooling Degree Days 3 4  
Month to date cooling degree days 33  
Year to date cooling degree days 75  
Since 1 June cooling degree days 33  
Growing Degree Days 18 (Base 50)    
Moisture  
Dew Point 61 °F    
Average Humidity 79    
Maximum Humidity 93    
Minimum Humidity 54    
Precipitation  
Precipitation 0.00 in 0.14 in 1.77 in (1874)
Month to date precipitation 1.30  
Year to date precipitation 10.88  
Snow  
Snow 0.00 in 0.00 in 0.00 in ()
Month to date snowfall 0.0  
Since 1 June snowfall 0.0  
Since 1 July snowfall 54.4  
Snow Depth -    
Sea Level Pressure  
Sea Level Pressure 29.83 in    
Wind  
Wind Speed 1 mph (SW)    
Max Wind Speed 6 mph    
Max Gust Speed -    
Visibility 6 miles    
Events      
T = Trace of Precipitation, MM = Missing Value Source: NWS Daily Summary

Daily Weather History Graph

Daily Weather History Graph

Search for Another Location

Airport or City:

Trip Planner

Search our weather history database for the weather conditions in past years. The results will help you decide how hot, cold, wet, or windy it might be!

Date:

Astronomy

Jun. 10, 2013 Rise Set
Actual Time 5:25 AM CDT 8:57 PM CDT
Civil Twilight 4:48 AM CDT 9:34 PM CDT
Nautical Twilight 4:00 AM CDT 10:23 PM CDT
Astronomical Twilight 2:56 AM CDT 11:27 PM CDT
Moon 7:18 AM CDT (6/10) 10:20 PM CDT (6/10)
Length of Visible Light 16h 45m
Length of Day
15h 32m
Waxing Crescent, 4% of the Moon is Illuminated
Jun 10
Waxing Crescent
Jun 16
First Quarter
Jun 23
Full
Jun 29
Last Quarter
Jul 8
New

Hourly Weather History & Observations

Time (CDT) Temp. Dew Point Humidity Pressure Visibility Wind Dir Wind Speed Gust Speed Precip Events Conditions
12:14 AM 64.6 °F 61.3 °F 89% 29.82 in 7.0 mi Calm Calm - N/A   Clear
12:34 AM 64.4 °F 61.5 °F 90% 29.81 in 7.0 mi Calm Calm - N/A   Clear
12:54 AM 63.7 °F 60.3 °F 89% 29.81 in 5.0 mi Calm Calm - N/A   Clear
1:14 AM 62.6 °F 60.1 °F 91% 29.81 in 3.0 mi Calm Calm - N/A   Clear
1:34 AM 61.3 °F 59.0 °F 92% 29.81 in 2.5 mi Calm Calm - N/A   Clear
1:54 AM 60.8 °F 58.5 °F 92% 29.81 in 3.0 mi Calm Calm - N/A   Clear
2:14 AM 61.2 °F 59.2 °F 93% 29.81 in 4.0 mi Calm Calm - N/A   Mostly Cloudy
2:34 AM 61.9 °F 59.9 °F 93% 29.81 in 4.0 mi Calm Calm - N/A   Overcast
2:54 AM 62.2 °F 59.9 °F 92% 29.81 in 5.0 mi Calm Calm - N/A   Mostly Cloudy
3:14 AM 61.9 °F 59.5 °F 92% 29.81 in 3.0 mi Calm Calm - N/A   Mostly Cloudy
3:34 AM 62.8 °F 60.8 °F 93% 29.80 in 3.0 mi Calm Calm - N/A   Overcast
3:54 AM 61.9 °F 59.7 °F 93% 29.80 in 1.8 mi Calm Calm - N/A   Overcast
4:14 AM 62.1 °F 60.1 °F 93% 29.81 in 2.5 mi Calm Calm - N/A   Overcast
4:34 AM 62.6 °F 60.4 °F 93% 29.80 in 3.0 mi Calm Calm - N/A   Overcast
4:54 AM 62.6 °F 60.4 °F 93% 29.80 in 3.0 mi Calm Calm - N/A   Overcast
5:14 AM 62.8 °F 60.8 °F 93% 29.80 in 4.0 mi Calm Calm - N/A   Mostly Cloudy
5:34 AM 61.7 °F 59.4 °F 92% 29.81 in 1.8 mi Calm Calm - N/A   Scattered Clouds
5:54 AM 61.7 °F 59.7 °F 93% 29.81 in 1.2 mi Calm Calm - N/A   Mist
6:14 AM 62.1 °F 60.1 °F 93% 29.82 in 2.0 mi Calm Calm - N/A   Overcast
6:34 AM 63.0 °F 61.0 °F 93% 29.81 in 2.0 mi Calm Calm - N/A   Overcast
6:54 AM 63.7 °F 61.5 °F 93% 29.82 in 2.5 mi Calm Calm - N/A   Overcast
7:14 AM 63.9 °F 61.7 °F 93% 29.83 in 2.0 mi Calm Calm - N/A   Overcast
7:34 AM 63.9 °F 61.7 °F 93% 29.82 in 2.5 mi Calm Calm - N/A   Overcast
7:54 AM 63.9 °F 61.3 °F 91% 29.82 in 2.5 mi Calm Calm - N/A   Overcast
8:14 AM 64.2 °F 61.5 °F 91% 29.82 in 3.0 mi Calm Calm - N/A   Overcast
8:34 AM 64.4 °F 61.5 °F 90% 29.84 in 3.0 mi Calm Calm - N/A   Overcast
8:54 AM 64.6 °F 61.7 °F 90% 29.84 in 3.0 mi Calm Calm - N/A   Overcast
9:14 AM 64.9 °F 61.9 °F 90% 29.85 in 2.5 mi WSW 3.5 mph - N/A   Overcast
9:34 AM 65.3 °F 61.7 °F 88% 29.86 in 4.0 mi Calm Calm - N/A   Overcast
9:54 AM 65.5 °F 61.9 °F 88% 29.86 in 3.0 mi Calm Calm - N/A   Overcast
10:14 AM 65.8 °F 62.1 °F 88% 29.86 in 3.0 mi Calm Calm - N/A   Overcast
10:34 AM 66.2 °F 62.1 °F 86% 29.86 in 3.0 mi Calm Calm - N/A   Overcast
10:54 AM 66.4 °F 62.2 °F 86% 29.85 in 3.0 mi Calm Calm - N/A   Overcast
11:14 AM 66.9 °F 62.6 °F 86% 29.86 in 4.0 mi Calm Calm - N/A   Mostly Cloudy
11:34 AM 67.3 °F 62.6 °F 85% 29.86 in 4.0 mi Calm Calm - N/A   Scattered Clouds
11:54 AM 67.3 °F 62.6 °F 85% 29.86 in 3.0 mi Calm Calm - N/A   Mist
12:14 PM 68.5 °F 63.0 °F 82% 29.86 in 4.0 mi Calm Calm - N/A   Haze
12:34 PM 68.4 °F 62.8 °F 82% 29.85 in 4.0 mi East 3.5 mph - N/A   Haze
12:54 PM 69.4 °F 63.5 °F 81% 29.85 in 4.0 mi SE 4.6 mph - N/A   Haze
1:14 PM 70.0 °F 62.2 °F 76% 29.85 in 5.0 mi SSE 3.5 mph - N/A   Haze
1:34 PM 69.8 °F 62.1 °F 76% 29.85 in 5.0 mi Calm Calm - N/A   Haze
1:54 PM 70.9 °F 62.1 °F 74% 29.85 in 5.0 mi Calm Calm - N/A   Haze
2:14 PM 72.1 °F 61.9 °F 70% 29.84 in 7.0 mi Calm Calm - N/A   Scattered Clouds
2:34 PM 73.6 °F 61.7 °F 66% 29.84 in 7.0 mi Calm Calm - N/A   Scattered Clouds
2:54 PM 74.1 °F 61.9 °F 65% 29.84 in 10.0 mi Calm Calm - N/A   Clear
3:14 PM 75.7 °F 61.3 °F 61% 29.84 in 10.0 mi SSW 4.6 mph - N/A   Clear
3:34 PM 75.4 °F 61.3 °F 62% 29.84 in 10.0 mi WSW 4.6 mph - N/A   Scattered Clouds
3:54 PM 75.4 °F 61.3 °F 62% 29.84 in 10.0 mi South 4.6 mph - N/A   Scattered Clouds
4:14 PM 75.2 °F 61.0 °F 61% 29.84 in 10.0 mi Calm Calm - N/A   Scattered Clouds
4:34 PM 76.3 °F 60.8 °F 59% 29.83 in 10.0 mi SSW 3.5 mph - N/A   Mostly Cloudy
4:54 PM 75.4 °F 60.4 °F 60% 29.83 in 10.0 mi South 3.5 mph - N/A   Scattered Clouds
5:14 PM 75.7 °F 60.4 °F 59% 29.83 in 10.0 mi South 4.6 mph - N/A   Scattered Clouds
5:34 PM 76.8 °F 60.8 °F 58% 29.83 in 10.0 mi Calm Calm - N/A   Mostly Cloudy
5:54 PM 76.8 °F 59.5 °F 55% 29.83 in 10.0 mi WNW 3.5 mph - N/A   Scattered Clouds
6:14 PM 76.6 °F 59.0 °F 54% 29.84 in 10.0 mi NW 3.5 mph - N/A   Clear
6:34 PM 76.1 °F 59.2 °F 56% 29.83 in 10.0 mi WSW 3.5 mph - N/A   Clear
6:54 PM 76.3 °F 59.9 °F 57% 29.83 in 10.0 mi SW 3.5 mph - N/A   Scattered Clouds
7:14 PM 76.5 °F 59.7 °F 56% 29.82 in 10.0 mi SSW 3.5 mph - N/A   Scattered Clouds
7:34 PM 76.5 °F 59.4 °F 55% 29.83 in 10.0 mi SW 5.8 mph - N/A   Scattered Clouds
7:54 PM 76.1 °F 59.7 °F 57% 29.83 in 10.0 mi West 3.5 mph - N/A   Scattered Clouds
8:14 PM 75.4 °F 59.9 °F 58% 29.82 in 10.0 mi West 4.6 mph - N/A   Clear
8:34 PM 74.5 °F 60.3 °F 61% 29.83 in 10.0 mi West 3.5 mph - N/A   Clear
8:54 PM 73.2 °F 60.8 °F 65% 29.83 in 10.0 mi Calm Calm - N/A   Clear
9:14 PM 71.8 °F 60.8 °F 68% 29.83 in 10.0 mi WSW 3.5 mph - N/A   Clear
9:34 PM 70.9 °F 61.0 °F 71% 29.84 in 10.0 mi SW 3.5 mph - N/A   Clear
9:54 PM 70.0 °F 61.0 °F 73% 29.84 in 10.0 mi WSW 3.5 mph - N/A   Clear
10:14 PM 69.3 °F 60.8 °F 74% 29.85 in 10.0 mi Calm Calm - N/A   Clear
10:34 PM 68.4 °F 61.0 °F 77% 29.86 in 10.0 mi WSW 3.5 mph - N/A   Clear
10:54 PM 68.4 °F 60.8 °F 77% 29.85 in 10.0 mi Calm Calm - N/A   Clear
11:14 PM 67.3 °F 60.8 °F 80% 29.86 in 10.0 mi WSW 4.6 mph - N/A   Clear
11:34 PM 67.3 °F 60.4 °F 79% 29.85 in 10.0 mi Calm Calm - N/A   Clear
11:54 PM 66.6 °F 60.3 °F 80% 29.85 in 10.0 mi Calm Calm - N/A   Clear